• In Uzbekistan
  • List of Countries
  • For 7 days
  • Water Temperature
  • Satellite Maps
  • Weather Map
  • Weather Widgets
  • user-avatar
    Login

    Hourly Weather Lubumbashi

    Today, 16 July, Monday

    Time Temperature Precipitation Wind Pressure Humidity
    00:00 +34°C° 0.2 mm 6 mps 719 mmHg 46%
    01:00 +33°C° 0.2 mm 7 mps 720 mmHg 51%
    02:00 +32°C° 0.2 mm 8 mps 720 mmHg 56%
    03:00 +30°C° 0 mm 7 mps 720 mmHg 59%
    04:00 +30°C° 0 mm 7 mps 720 mmHg 62%
    05:00 +29°C° 0 mm 6 mps 720 mmHg 66%
    06:00 +29°C° 0 mm 6 mps 720 mmHg 64%
    07:00 +29°C° 0 mm 5 mps 721 mmHg 63%
    08:00 +30°C° 0 mm 5 mps 721 mmHg 61%
    09:00 +32°C° 0 mm 5 mps 721 mmHg 55%
    10:00 +34°C° 0 mm 5 mps 721 mmHg 48%
    11:00 +36°C° 0 mm 5 mps 721 mmHg 41%
    12:00 +37°C° 0 mm 5 mps 721 mmHg 38%
    13:00 +39°C° 0 mm 5 mps 720 mmHg 34%
    14:00 +40°C° 0 mm 5 mps 720 mmHg 30%
    15:00 +40°C° 0 mm 5 mps 719 mmHg 30%
    16:00 +40°C° 0 mm 5 mps 719 mmHg 29%
    17:00 +40°C° 0 mm 5 mps 718 mmHg 29%
    18:00 +38°C° 0 mm 4 mps 719 mmHg 29%
    19:00 +38°C° 0 mm 4 mps 719 mmHg 29%
    20:00 +38°C° 0 mm 4 mps 719 mmHg 30%
    21:00 +37°C° 0 mm 4 mps 719 mmHg 31%
    22:00 +37°C° 0 mm 4 mps 720 mmHg 32%
    23:00 +36°C° 0 mm 4 mps 720 mmHg 34%

    Tomorrow, 17 July, Tuesday

    Time Temperature Precipitation Wind Pressure Humidity
    00:00 +36°C° 0 mm 4 mps 720 mmHg 35%
    01:00 +35°C° 0 mm 3 mps 720 mmHg 37%
    02:00 +34°C° 0 mm 3 mps 719 mmHg 39%
    03:00 +34°C° 0.2 mm 3 mps 719 mmHg 41%
    04:00 +33°C° 0.2 mm 3 mps 719 mmHg 43%
    05:00 +31°C° 0.2 mm 3 mps 719 mmHg 46%
    06:00 +32°C° 0 mm 4 mps 720 mmHg 47%
    07:00 +33°C° 0 mm 5 mps 721 mmHg 47%
    08:00 +33°C° 0 mm 5 mps 721 mmHg 48%
    09:00 +34°C° 0 mm 5 mps 721 mmHg 44%
    10:00 +36°C° 0 mm 5 mps 722 mmHg 40%
    11:00 +37°C° 0 mm 5 mps 722 mmHg 37%
    12:00 +39°C° 0 mm 5 mps 721 mmHg 34%
    13:00 +40°C° 0 mm 5 mps 720 mmHg 31%
    14:00 +41°C° 0 mm 5 mps 719 mmHg 28%
    15:00 +41°C° 0 mm 5 mps 719 mmHg 27%
    16:00 +41°C° 0 mm 4 mps 718 mmHg 27%
    17:00 +41°C° 0 mm 4 mps 718 mmHg 26%
    18:00 +40°C° 0 mm 4 mps 718 mmHg 27%
    19:00 +40°C° 0 mm 4 mps 718 mmHg 27%
    20:00 +38°C° 0 mm 4 mps 719 mmHg 28%
    21:00 +39°C° 0 mm 5 mps 719 mmHg 30%
    22:00 +37°C° 0 mm 5 mps 719 mmHg 33%
    23:00 +36°C° 0 mm 6 mps 719 mmHg 35%

    Day after tomorrow, 18 July, Wednesday

    Time Temperature Precipitation Wind Pressure Humidity
    00:00 +35°C° 0.7 mm 6 mps 719 mmHg 39%
    01:00 +34°C° 0.7 mm 6 mps 719 mmHg 44%
    02:00 +33°C° 0.7 mm 6 mps 719 mmHg 49%
    03:00 +32°C° 0.1 mm 6 mps 719 mmHg 53%
    04:00 +30°C° 0.1 mm 6 mps 719 mmHg 57%
    05:00 +29°C° 0.1 mm 6 mps 719 mmHg 61%
    06:00 +29°C° 1.6 mm 5 mps 720 mmHg 64%
    07:00 +28°C° 1.6 mm 4 mps 720 mmHg 67%
    08:00 +28°C° 1.6 mm 4 mps 721 mmHg 70%
    09:00 +29°C° 0.3 mm 4 mps 721 mmHg 66%
    10:00 +30°C° 0.3 mm 4 mps 722 mmHg 63%
    11:00 +30°C° 0.3 mm 5 mps 722 mmHg 60%
    12:00 +33°C° 0 mm 5 mps 721 mmHg 55%
    13:00 +34°C° 0 mm 5 mps 720 mmHg 50%
    14:00 +35°C° 0 mm 5 mps 719 mmHg 45%
    15:00 +35°C° 0 mm 5 mps 719 mmHg 43%
    16:00 +36°C° 0 mm 5 mps 718 mmHg 41%
    17:00 +36°C° 0 mm 5 mps 718 mmHg 39%
    18:00 +35°C° 0 mm 4 mps 718 mmHg 41%
    19:00 +35°C° 0 mm 4 mps 719 mmHg 43%
    20:00 +34°C° 0 mm 4 mps 719 mmHg 44%
    21:00 +33°C° 0.1 mm 4 mps 719 mmHg 46%
    22:00 +33°C° 0.1 mm 4 mps 719 mmHg 47%
    23:00 +32°C° 0.1 mm 4 mps 720 mmHg 48%

    19 July, Thursday

    Time Temperature Precipitation Wind Pressure Humidity
    00:00 +32°C° 0 mm 4 mps 719 mmHg 49%
    01:00 +32°C° 0 mm 5 mps 719 mmHg 51%
    02:00 +30°C° 0 mm 5 mps 718 mmHg 52%
    03:00 +29°C° 0 mm 5 mps 718 mmHg 56%
    04:00 +29°C° 0 mm 5 mps 719 mmHg 59%
    05:00 +28°C° 0 mm 5 mps 719 mmHg 62%
    06:00 +29°C° 0 mm 5 mps 719 mmHg 62%
    07:00 +29°C° 0 mm 5 mps 720 mmHg 61%
    08:00 +29°C° 0 mm 5 mps 720 mmHg 61%
    09:00 +32°C° 0 mm 6 mps 720 mmHg 55%
    10:00 +33°C° 0 mm 6 mps 720 mmHg 49%
    11:00 +35°C° 0 mm 6 mps 720 mmHg 43%
    12:00 +36°C° 0 mm 6 mps 720 mmHg 40%
    13:00 +38°C° 0 mm 6 mps 719 mmHg 36%
    14:00 +39°C° 0 mm 6 mps 718 mmHg 32%
    15:00 +39°C° 0 mm 5 mps 718 mmHg 32%
    16:00 +39°C° 0 mm 5 mps 717 mmHg 31%
    17:00 +39°C° 0 mm 5 mps 717 mmHg 30%
    18:00 +38°C° 0 mm 4 mps 718 mmHg 32%
    19:00 +37°C° 0 mm 4 mps 718 mmHg 33%
    20:00 +37°C° 0 mm 3 mps 719 mmHg 34%
    21:00 +36°C° 0.2 mm 4 mps 719 mmHg 37%
    22:00 +35°C° 0.2 mm 4 mps 719 mmHg 40%
    23:00 +34°C° 0.2 mm 5 mps 720 mmHg 42%

    20 July, Friday

    Time Temperature Precipitation Wind Pressure Humidity
    00:00 +33°C° 0.1 mm 5 mps 719 mmHg 47%
    01:00 +32°C° 0.1 mm 5 mps 719 mmHg 52%
    02:00 +32°C° 0.1 mm 6 mps 719 mmHg 56%
    03:00 +30°C° 0.1 mm 5 mps 719 mmHg 58%
    04:00 +30°C° 0.1 mm 5 mps 719 mmHg 60%
    05:00 +29°C° 0.1 mm 5 mps 719 mmHg 62%
    06:00 +29°C° 0 mm 5 mps 720 mmHg 62%
    07:00 +30°C° 0 mm 6 mps 720 mmHg 61%
    08:00 +30°C° 0 mm 6 mps 721 mmHg 61%
    09:00 +33°C° 0 mm 5 mps 721 mmHg 55%
    10:00 +34°C° 0 mm 5 mps 721 mmHg 49%
    11:00 +36°C° 0 mm 4 mps 721 mmHg 42%
    12:00 +37°C° 0 mm 4 mps 720 mmHg 39%
    13:00 +38°C° 0 mm 4 mps 719 mmHg 35%
    14:00 +40°C° 0 mm 4 mps 718 mmHg 32%
    15:00 +40°C° 0 mm 4 mps 718 mmHg 31%
    16:00 +39°C° 0 mm 3 mps 718 mmHg 31%
    17:00 +39°C° 0 mm 3 mps 718 mmHg 30%
    18:00 +39°C° 0 mm 3 mps 718 mmHg 31%
    19:00 +38°C° 0 mm 3 mps 719 mmHg 32%
    20:00 +38°C° 0 mm 3 mps 719 mmHg 33%
    21:00 +37°C° 0 mm 4 mps 719 mmHg 35%
    22:00 +36°C° 0 mm 4 mps 719 mmHg 37%
    23:00 +36°C° 0 mm 4 mps 720 mmHg 39%

    21 July, Saturday

    Time Temperature Precipitation Wind Pressure Humidity
    00:00 +35°C° 0 mm 4 mps 719 mmHg 41%
    01:00 +34°C° 0 mm 4 mps 719 mmHg 42%
    02:00 +34°C° 0 mm 4 mps 719 mmHg 44%
    03:00 +33°C° 0.2 mm 5 mps 719 mmHg 47%
    04:00 +32°C° 0.2 mm 5 mps 719 mmHg 51%
    05:00 +30°C° 0.2 mm 5 mps 719 mmHg 54%
    06:00 +32°C° 0 mm 5 mps 720 mmHg 54%
    07:00 +32°C° 0 mm 5 mps 720 mmHg 53%
    08:00 +32°C° 0 mm 5 mps 721 mmHg 52%
    09:00 +34°C° 0 mm 5 mps 721 mmHg 47%
    10:00 +36°C° 0 mm 5 mps 721 mmHg 43%
    11:00 +37°C° 0 mm 5 mps 721 mmHg 38%
    12:00 +39°C° 0 mm 5 mps 720 mmHg 35%
    13:00 +40°C° 0 mm 5 mps 720 mmHg 33%
    14:00 +41°C° 0 mm 5 mps 719 mmHg 30%
    15:00 +41°C° 0 mm 4 mps 719 mmHg 30%
    16:00 +41°C° 0 mm 4 mps 718 mmHg 30%
    17:00 +40°C° 0 mm 3 mps 718 mmHg 29%
    18:00 +39°C° 0.1 mm 3 mps 718 mmHg 30%
    19:00 +40°C° 0.1 mm 4 mps 718 mmHg 32%
    20:00 +38°C° 0.1 mm 4 mps 718 mmHg 33%
    21:00 +37°C° 0.1 mm 5 mps 718 mmHg 37%
    22:00 +36°C° 0.1 mm 6 mps 719 mmHg 41%
    23:00 +34°C° 0.1 mm 7 mps 719 mmHg 45%
    Show more